Location: Zagreb
(45.8000°N, 16.0000°E)
Time: 20:05:59
(UTC+02:00)

SR - Pass Details

Date: 20 August 2020
Orbit: 583 x 873 km, 66.7° (Epoch: 28 September)

Event Time Altitude Azimuth Distance (km) Brightness Sun altitude
Rises 02:56:05 0° 337° (NNW) 2,822 ? -26.2°
Reaches altitude 10° 02:59:21 10° 4° (N) 1,939 ? -25.9°
Maximum altitude 03:01:36 14° 36° (NE) 1,722 ? -25.7°
Drops below altitude 10° 03:03:54 10° 68° (ENE) 1,986 ? -25.5°
Sets 03:07:19 0° 94° (E) 2,943 ? -25.1°
